Weather Roundup
Issued by NWS Chicago, IL

Home | Current Version | Previous Version | Text Only | Print | Product List | Glossary Off
Versions: 1 2 3 4 5 6 7 8 9 10 11 12 13 14 15 16 17 18 19 20 21 22 23 24 25 26 27 28 29 30 31 32 33 34 35 36 37 38 39 40 41 42 43 44 45 46 47 48 49 50

815
NZUS59 KLOT 240308
HRRLOT

CHICAGO AREA WEATHER ROUNDUP
NATIONAL WEATHER SERVICE CHICAGO/ROMEOVILLE IL
1000 PM CDT TUE MAY 23 2017

NOTE: "FAIR" INDICATES FEW OR NO CLOUDS BELOW 12,000 FEET WITH NO
SIGNIFICANT WEATHER AND/OR OBSTRUCTIONS TO VISIBILITY.

* THESE STATIONS ARE NOT UNDER NWS QUALITY CONTROL. THEY ALSO MAY NOT
  REPORT WEATHER SUCH AS PRECIPITATION OR FOG.

ILZ005-006-012>014-019>023-240400-
NORTHEAST ILLINOIS

CITY           SKY/WX    TMP DP  RH WIND       PRES   REMARKS
OHARE          CLOUDY    57  53  86 E7        29.68F
MIDWAY         CLOUDY    58  55  90 E8        29.69S
AURORA         CLOUDY    55  54  96 CALM      29.69F
LANSING*       CLOUDY    56  56 100 CALM      29.70S FOG
JOLIET*        LGT RAIN  57  57  98 N3        29.69S
WAUKEGAN       MOCLDY    53  53 100 E5        29.69F
DUPAGE AIRPORT CLOUDY    54  54 100 CALM      29.68F
WHEELING       CLOUDY    55  54  96 CALM      29.70F
KANKAKEE*      CLOUDY    57  55  91 CALM      29.68F
MORRIS*        CLOUDY    56  54  93 CALM      29.68F
LEWIS AIRPORT* LGT RAIN  55  55 100 CALM      29.69F
NORTHERLY ISL    N/A     54  52  93 NE6         N/A
$$

WIZ051-052-058>065-066-070>072-240400-
SOUTHEAST WISCONSIN

CITY           SKY/WX    TMP DP  RH WIND       PRES   REMARKS
MILWAUKEE      LGT RAIN  48  47  96 N7        29.72S FOG
KENOSHA*       CLOUDY    54  53  97 E8        29.70F
RACINE*        CLOUDY    49  47  93 NE7       29.73S FOG
WEST BEND      DRIZZLE   46  46 100 NE8       29.73S
$$

INZ001>003-010>013-019-020-240400-
NORTHWEST INDIANA

CITY           SKY/WX    TMP DP  RH WIND       PRES   REMARKS
GARY*          CLOUDY    57  54  88 N5        29.70F
MICHIGAN CITY* NOT AVBL
RENSSELAER*    NOT AVBL
VALPARAISO     CLOUDY    58  55  90 N7        29.69F
$$

LMZ740>746-240400-
SOUTHERN LAKE MICHIGAN

STATION/POSITION TIME  SKY/WX   TEMP WIND        PRES    VSBY
                                AIR  DIR/SP/G
                 (UTC)          (F)  (DEG/KT/KT) (MB)    (MI)
HARRISON CRIB    0240            55   60/  8/  9   N/A
BURNHAM HARBOR   0300            54  360/  3/  7   N/A
CALUMET HARBOR   0242            55   10/  4/  6 1005.4S
BURNS HARBOR     0230            54   10/  6/ 12 1006.1S
MICHIGAN CITY    0240            54   10/ 15/ 16   N/A
$$

ABBREVIATIONS USED IN REMARKS
   TC - TEMPERATURE IN CELSIUS
  WCI - WIND CHILL INDEX
   HX - HEAT INDEX
  VSB - VISIBILITY
$$




USA.gov is the U.S. government's official web portal to all federal, state and local government web resources and services.